GFSFLT1_sfc_temp_051.txt.gz
Temp
75 74 73 73 73 74 74 74 74 74 74 74 74 74 73 72 81 80 78 79 74 74 75 75 76 76 76 77 77 77 77 76 77
74 73 73 73 73 73 74 74 74 73 74 74 74 73 72 76 81 81 80 77 74 74 75 76 76 76 76 76 76 77 77 76 77
74 74 73 73 73 73 73 73 73 73 74 74 73 72 71 77 81 80 79 72 74 75 76 76 76 76 76 76 76 77 77 77 77
74 74 73 73 73 73 73 73 73 73 73 72 71 70 70 75 80 80 77 72 75 76 76 76 76 76 75 75 75 76 76 77 77
74 73 73 73 73 73 73 73 73 72 71 71 70 70 69 75 79 77 72 72 75 76 75 75 75 75 75 75 74 74 74 74 74
75 70 71 72 72 72 72 72 71 71 70 69 69 68 80 81 79 77 69 72 75 75 75 74 74 74 73 73 73 73 73 73 73
79 72 70 71 71 71 71 71 71 69 79 76 71 80 80 79 78 71 69 72 74 74 73 73 72 72 72 72 71 71 71 71 71
78 78 76 76 69 77 74 74 79 78 79 79 79 78 79 78 77 67 67 70 73 73 72 70 70 70 70 70 70 70 70 70 70
80 80 79 79 79 79 78 77 78 78 78 78 77 77 76 75 75 63 65 68 70 70 69 69 68 68 68 69 68 68 68 68 68
81 80 79 79 79 79 77 77 76 76 77 77 75 74 73 73 73 68 63 66 67 67 67 66 66 66 67 67 67 67 67 66 66
80 79 79 78 77 74 73 74 74 74 74 74 74 73 72 72 70 71 63 63 64 64 64 64 64 65 65 66 66 66 66 65 65
79 78 75 75 75 74 74 73 73 72 71 71 72 71 71 70 69 69 69 61 60 60 61 61 62 62 63 64 65 64 64 63 63
75 72 73 73 73 73 72 71 69 68 68 68 69 69 68 69 68 67 67 65 65 59 59 59 60 60 61 62 62 62 62 62 62
73 72 70 73 71 70 70 67 67 65 65 65 67 66 65 66 67 66 64 62 62 62 61 60 60 60 59 60 61 60 60 60 60
70 70 70 71 68 68 66 65 65 63 63 65 66 65 64 64 64 63 65 63 61 61 60 60 60 60 60 59 59 58 59 59 59
68 66 66 65 63 67 67 64 62 60 61 62 62 62 62 62 62 62 63 62 61 61 61 59 59 59 59 59 58 57 57 57 57
59 60 61 62 64 63 63 62 60 58 58 55 56 56 58 61 62 62 62 60 61 60 59 58 57 56 56 55 56 56 56 55 56
59 59 56 59 62 59 59 58 58 56 57 56 54 52 52 52 60 60 60 60 59 57 57 56 56 56 55 55 54 54 53 54 55
59 59 59 57 59 58 57 59 59 58 54 56 56 53 53 48 48 57 58 59 56 57 56 56 55 55 54 54 54 54 53 53 54
55 54 54 56 57 57 56 57 56 57 54 52 52 52 53 52 47 44 50 54 56 55 55 55 54 54 53 52 52 52 52 52 53

GFSFLT1_sfc_temp_054.txt.gz
Temp
75 74 73 73 74 74 74 74 74 74 74 74 74 73 73 72 72 73 72 69 75 75 76 76 76 76 76 76 77 77 77 77 76
74 73 73 73 74 74 74 74 74 73 74 74 73 72 71 69 69 72 68 69 75 76 76 76 76 76 76 76 76 76 76 77 77
74 73 73 73 74 74 74 74 74 73 74 73 72 71 70 71 74 71 68 73 76 77 77 76 76 76 76 75 76 76 77 77 77
74 73 73 73 73 73 73 73 73 73 73 72 71 71 70 67 72 73 70 73 76 76 76 76 76 75 75 75 75 75 75 75 75
73 72 73 73 73 73 73 73 73 72 72 71 71 70 69 66 72 69 69 73 75 75 75 74 75 74 74 73 73 73 74 73 73
70 70 71 72 72 72 72 72 72 71 70 70 70 69 67 68 67 64 70 73 75 75 73 73 73 73 72 72 72 71 72 72 72
73 68 69 71 71 71 72 72 71 70 70 66 68 66 67 67 63 62 70 72 74 73 72 71 71 71 71 70 70 70 71 71 71
69 65 66 64 66 66 69 68 68 69 68 68 67 67 64 63 60 64 68 71 73 72 70 69 69 69 69 69 69 69 69 69 69
68 68 67 67 66 68 68 70 69 69 69 67 66 64 63 62 58 60 66 69 71 69 69 68 68 68 68 68 68 68 68 67 67
68 68 68 68 68 68 67 67 67 66 67 66 65 64 62 62 58 55 64 67 67 67 67 67 67 67 67 67 67 67 67 67 66
69 68 67 66 65 65 64 64 63 62 62 62 63 61 61 61 60 55 57 64 64 64 65 65 64 65 65 66 66 65 65 65 64
69 67 65 64 64 65 64 63 62 59 61 58 60 60 58 59 60 57 55 56 61 62 62 62 63 63 64 64 64 64 63 63 63
65 64 63 65 64 61 61 59 57 56 56 55 56 56 57 57 57 58 55 54 55 58 61 61 62 62 63 62 63 63 62 62 62
65 61 61 63 62 62 60 56 55 53 53 55 55 54 54 55 60 55 55 54 54 53 60 61 61 62 62 62 62 61 61 60 60
62 61 61 60 58 58 58 54 54 51 50 58 57 53 53 53 53 54 58 54 54 52 53 50 51 59 61 61 61 60 60 59 59
60 58 58 58 57 57 57 56 53 49 49 48 49 50 52 52 53 54 52 53 53 51 50 49 48 48 58 58 59 59 59 58 58
55 54 55 56 57 57 56 55 51 49 48 45 47 45 48 52 53 51 53 50 51 50 51 48 48 46 45 49 57 57 57 57 57
54 53 53 53 51 50 52 53 52 47 48 47 44 41 40 42 48 50 49 49 46 47 48 49 49 47 45 49 49 55 55 56 57
56 55 55 55 54 53 53 54 52 51 47 48 50 44 43 38 37 44 46 47 48 45 45 46 47 47 45 50 52 54 54 55 56
55 55 55 55 53 53 52 49 49 48 46 44 44 43 43 42 37 34 38 42 44 45 44 44 44 46 46 44 47 54 54 54 54

GFSFLT1_sfc_temp_057.txt.gz
Temp
75 74 74 74 74 74 74 74 74 74 74 74 74 73 73 72 71 71 71 68 76 76 76 76 76 75 76 76 76 76 76 77 76
74 74 73 74 74 74 74 74 74 74 74 74 73 72 71 68 70 67 66 69 76 76 76 77 75 75 75 76 76 76 76 76 77
74 73 73 74 74 74 74 74 74 74 74 73 72 72 70 69 71 68 70 74 77 76 76 76 76 76 76 75 75 74 75 76 76
74 73 73 74 73 73 73 73 73 73 73 72 72 71 70 65 71 72 70 74 76 76 75 75 75 74 74 74 74 74 74 74 73
73 72 73 73 73 73 73 73 73 73 72 72 71 70 69 65 68 67 67 74 75 75 74 74 74 73 73 72 72 72 73 72 72
69 69 71 72 72 72 73 72 72 71 70 71 70 69 65 63 62 63 71 74 75 73 73 72 72 72 71 71 71 71 71 71 71
70 67 69 71 71 71 72 72 71 69 66 64 67 64 63 61 60 62 71 74 74 72 71 71 71 70 70 70 70 70 70 69 69
64 63 65 64 66 66 68 67 67 65 64 64 63 63 60 58 59 64 70 72 73 71 70 69 69 69 69 69 69 68 68 68 68
63 62 62 62 63 63 63 63 65 66 65 64 64 62 59 56 56 59 67 71 70 69 68 68 68 68 68 68 68 67 67 67 66
64 63 63 63 63 63 62 63 63 63 62 62 62 60 58 56 55 54 65 67 68 67 67 67 67 67 67 67 67 66 66 66 65
64 65 64 62 62 62 62 61 60 59 60 59 59 57 57 56 54 54 57 65 65 65 65 65 65 65 66 66 66 65 65 64 64
65 63 61 61 62 62 61 60 58 57 58 55 56 56 55 55 53 53 52 55 62 63 64 64 64 64 65 65 65 64 63 63 63
63 62 60 61 61 59 57 57 54 53 52 52 53 53 54 54 53 52 51 51 53 58 62 62 63 63 64 64 64 63 62 62 61
64 62 59 60 58 56 57 53 53 50 50 53 52 51 52 53 56 51 50 51 50 50 59 60 60 61 62 63 63 63 62 61 60
61 60 59 58 55 54 54 52 50 49 48 56 54 51 50 51 50 51 54 51 51 51 51 48 49 58 59 60 60 61 61 60 60
60 57 57 56 55 54 54 51 51 48 48 48 51 49 49 50 50 50 50 52 52 50 48 46 46 47 56 57 58 59 59 59 59
57 56 54 54 53 53 53 52 48 49 49 48 47 46 48 48 50 48 50 47 48 49 49 47 47 44 44 47 57 57 57 58 59
55 52 52 50 50 50 50 53 50 48 47 46 45 42 43 42 48 49 47 47 45 45 45 47 47 45 43 47 48 54 56 57 58
56 54 52 52 53 52 50 54 51 49 46 46 49 44 42 38 39 44 45 44 46 43 43 43 44 45 43 48 51 55 55 56 57
56 55 55 54 52 53 51 51 50 49 46 45 43 42 40 39 37 35 38 41 42 42 41 41 41 42 42 41 45 53 54 55 56

GFSFLT1_sfc_temp_063.txt.gz
Temp
76 76 74 75 75 75 75 75 75 74 74 74 74 73 72 69 65 64 66 66 75 77 77 76 75 75 75 76 76 76 75 75 76
75 74 74 74 74 74 75 74 74 74 74 74 74 72 71 64 63 64 65 66 76 77 76 76 76 75 75 74 74 74 75 75 74
74 73 73 74 74 74 74 74 74 73 73 73 73 71 69 67 65 66 66 73 76 76 75 75 75 75 75 74 74 74 74 73 73
74 73 74 74 74 74 74 74 74 73 73 73 72 70 69 64 65 68 65 74 76 75 74 74 74 73 73 73 73 73 73 72 72
73 72 73 73 73 73 73 73 73 73 72 72 71 69 67 62 63 63 65 75 75 74 73 73 73 72 72 71 71 71 71 71 71
68 68 70 72 72 73 73 73 73 71 70 70 68 65 61 60 60 61 71 75 74 73 72 72 72 71 70 70 70 70 70 69 69
67 65 69 71 71 71 72 72 71 68 62 61 64 59 58 58 59 60 72 74 73 72 70 70 70 70 69 69 69 69 69 68 68
63 62 63 63 65 64 66 65 63 62 61 59 58 57 56 55 57 63 71 73 72 71 70 69 69 69 69 68 68 68 68 67 67
61 60 61 61 62 61 61 60 60 60 60 58 57 56 54 53 54 59 68 71 71 69 69 68 68 68 68 68 67 66 66 66 66
60 60 60 60 60 60 59 59 59 58 58 58 57 55 53 53 54 55 66 68 69 68 68 67 67 67 67 67 66 66 65 65 64
61 59 59 58 59 59 59 58 57 56 56 55 55 53 52 52 53 53 57 66 67 67 67 66 66 66 66 66 66 65 64 63 63
62 59 58 59 59 59 57 56 55 54 55 53 53 52 50 51 51 51 52 55 63 65 65 65 65 65 65 66 65 64 63 63 62
60 59 58 58 57 57 55 54 52 51 52 50 50 50 50 49 49 50 49 50 51 59 63 63 63 63 64 64 64 64 63 62 62
62 59 57 57 56 55 55 51 52 50 49 51 49 48 48 48 52 48 48 49 49 48 60 60 60 61 62 62 63 63 63 62 61
63 58 57 57 54 53 52 51 48 48 48 54 50 47 47 47 47 48 51 49 50 49 48 45 47 58 60 60 61 61 61 61 61
61 58 56 56 56 55 53 50 49 46 46 47 49 46 47 47 47 47 48 50 48 47 46 44 43 44 54 56 58 60 60 60 60
59 58 57 57 53 52 51 50 47 46 45 46 44 44 48 47 47 46 48 45 46 46 46 43 43 42 41 45 54 55 57 59 60
60 59 58 55 52 50 49 49 48 44 45 46 47 42 42 41 44 43 43 43 42 42 43 43 42 41 39 42 44 52 55 57 59
56 55 54 53 51 49 51 51 50 50 47 47 49 44 43 42 39 41 41 41 43 41 41 40 41 40 40 45 49 52 53 55 57
54 54 52 53 53 53 53 52 51 51 48 46 42 42 41 38 38 37 37 39 40 40 39 39 38 39 39 39 44 50 52 53 55

GFSFLT1_sfc_temp_066.txt.gz
Temp
77 77 76 75 75 75 75 75 75 75 75 75 74 73 72 69 64 64 65 66 74 77 76 75 75 75 75 76 76 76 75 75 75
76 76 74 75 75 75 75 75 74 74 74 74 74 72 70 63 62 63 64 68 77 76 76 76 76 76 75 74 75 74 74 74 74
75 74 74 74 74 74 74 74 74 74 74 73 72 71 69 66 63 64 65 74 76 76 75 75 75 74 74 74 74 74 73 73 73
74 74 73 74 74 74 74 74 74 73 73 72 71 70 68 62 64 67 65 74 76 75 74 74 74 73 73 73 73 73 72 72 72
73 72 73 74 74 73 73 73 73 73 72 71 70 69 66 61 62 62 65 74 75 74 73 73 73 72 71 71 71 71 70 70 70
67 68 70 72 73 73 73 73 73 70 69 69 68 65 59 59 60 60 72 74 73 73 72 72 71 71 70 70 70 70 69 69 69
65 65 69 71 71 71 72 72 71 65 61 60 63 58 57 58 58 59 72 73 73 71 71 70 70 70 69 69 69 69 69 68 68
62 61 63 63 65 64 65 64 62 61 59 58 56 56 55 55 56 61 71 72 72 70 70 69 69 69 69 68 68 68 67 67 67
60 60 60 61 61 61 61 60 59 58 58 57 55 55 54 53 54 58 69 71 70 70 69 69 68 68 68 67 67 66 66 66 66
60 59 59 59 60 59 59 58 58 57 57 56 56 54 53 53 54 56 66 68 69 69 68 68 68 68 67 67 66 65 65 65 64
60 59 59 58 58 59 59 57 56 55 55 54 54 52 51 52 52 53 58 66 67 68 67 67 67 67 67 67 66 65 64 64 63
61 59 58 58 58 58 56 56 54 53 54 52 52 51 49 50 51 51 52 55 64 66 66 66 65 65 66 66 65 65 64 63 63
60 59 59 58 57 56 55 53 52 51 51 50 50 49 49 48 49 49 49 49 51 60 64 64 64 64 64 64 64 64 63 63 62
61 59 58 57 55 54 55 51 51 49 49 50 48 47 47 47 50 47 47 48 48 48 60 61 60 61 62 63 63 63 63 62 62
61 59 57 56 54 52 52 51 48 48 48 53 49 46 46 46 46 46 49 47 47 46 47 45 47 57 59 60 61 62 61 61 62
62 59 56 55 55 55 54 49 49 46 46 47 46 45 45 45 45 45 45 47 46 45 44 43 42 43 53 54 57 59 59 60 61
61 59 57 57 54 52 53 50 47 46 45 46 46 44 48 45 45 44 46 44 44 44 44 42 42 40 40 44 53 54 57 58 60
60 59 58 56 55 52 52 49 49 46 44 48 50 44 45 41 42 42 42 42 40 40 41 41 41 40 39 42 45 53 54 56 58
59 58 57 55 54 51 50 52 53 51 48 48 50 47 47 43 42 40 40 40 41 39 39 39 39 39 38 44 48 51 52 55 56
56 56 54 53 52 52 51 51 51 51 49 48 47 46 44 43 43 40 37 38 39 39 38 37 37 38 37 38 43 50 51 53 54

GFSFLT1_sfc_temp_069.txt.gz
Temp
79 76 76 76 76 75 76 75 75 75 75 75 75 74 72 71 76 75 73 74 75 76 76 75 75 75 75 74 75 76 75 75 74
77 75 75 75 75 75 75 75 75 74 74 74 74 72 70 76 76 76 73 77 77 77 76 76 75 75 75 75 75 74 74 74 74
76 74 75 75 75 75 75 74 74 74 74 74 72 71 70 74 75 75 77 75 77 76 75 75 74 74 74 74 74 73 73 73 73
75 74 74 74 75 74 74 74 74 74 73 73 71 70 68 75 75 76 78 74 76 75 75 74 73 73 73 73 73 72 72 71 72
73 72 73 74 74 74 73 74 74 73 72 72 70 68 67 75 74 76 77 74 75 74 74 73 72 72 72 71 71 71 70 70 70
74 70 71 72 73 73 73 73 72 70 69 69 68 67 73 74 74 76 73 74 74 73 72 72 71 71 70 70 70 70 69 69 69
73 70 69 71 71 72 73 72 69 69 73 72 67 73 73 73 73 76 72 73 73 72 71 71 70 70 70 69 69 69 69 68 68
73 72 73 73 68 73 73 72 73 71 72 71 72 71 72 73 73 71 71 73 72 71 70 70 70 69 69 68 68 68 67 67 67
70 71 71 71 72 71 71 72 71 71 70 71 70 70 71 71 72 72 69 71 71 70 70 69 69 69 68 68 67 66 66 66 66
70 70 70 70 70 71 70 70 70 69 70 69 69 68 68 68 70 73 66 69 70 70 69 69 68 68 68 67 66 65 65 65 65
69 69 69 69 70 70 70 69 69 68 69 68 67 67 66 67 67 70 70 67 68 68 68 68 68 68 68 67 66 65 64 64 64
70 69 68 69 69 69 69 67 67 66 66 66 66 66 65 65 65 66 68 68 65 67 67 67 66 66 66 66 66 65 64 64 63
69 69 69 69 68 68 67 66 65 65 65 64 63 64 63 64 64 63 64 64 66 65 65 65 65 65 65 65 65 64 64 63 63
70 69 70 69 67 66 65 63 65 62 62 61 61 61 62 62 61 62 61 62 62 64 62 61 61 62 63 63 64 64 63 63 63
69 69 69 68 66 65 63 62 61 63 62 61 60 60 60 60 60 61 61 60 59 60 59 59 59 57 59 60 61 61 62 62 62
68 68 68 66 65 64 64 61 59 57 59 58 58 58 58 58 59 59 60 58 58 58 58 59 59 58 54 55 57 58 59 60 61
68 68 67 66 64 63 61 59 56 56 57 58 58 56 57 57 56 55 57 58 57 56 55 56 55 55 55 55 54 56 57 58 59
67 67 67 65 64 61 60 59 59 53 53 56 59 50 53 50 52 53 55 55 55 55 54 53 52 53 54 53 53 53 54 56 58
66 66 65 64 62 61 58 57 59 56 52 52 53 53 55 48 48 48 51 52 51 52 51 52 50 50 51 49 49 51 52 54 56
65 65 64 62 61 60 57 56 56 59 55 54 49 48 47 47 46 49 44 47 46 51 52 51 50 49 49 50 49 50 51 53 54

GFSFLT1_sfc_temp_072.txt.gz
Temp
77 77 77 76 76 75 76 76 76 75 75 75 75 74 73 73 82 79 77 79 76 76 75 75 75 75 75 75 76 75 74 74 75
76 76 76 76 75 75 75 75 75 75 75 74 74 72 71 82 82 82 79 80 77 77 76 76 75 75 75 75 74 74 74 74 74
76 75 75 75 75 75 75 75 75 74 74 73 72 71 72 79 81 81 79 76 76 76 75 75 74 74 74 74 73 73 73 73 73
76 74 75 75 75 74 74 74 74 74 73 72 71 70 70 81 81 82 83 74 76 75 74 74 73 73 73 72 72 71 71 71 72
74 72 73 74 74 74 74 74 74 73 72 71 70 69 70 81 80 82 79 74 75 74 74 73 72 72 71 71 71 70 70 70 70
76 73 71 73 73 73 73 73 72 70 70 70 68 68 83 82 82 82 73 74 74 73 72 72 71 71 71 70 70 70 69 69 69
80 73 70 72 72 72 73 72 70 70 80 77 69 82 81 81 81 81 73 73 73 72 71 71 70 70 70 69 69 69 69 68 68
79 79 77 78 70 78 76 75 79 79 81 80 81 81 81 82 81 74 72 73 72 71 71 70 70 69 69 68 68 68 67 67 67
80 80 80 79 79 79 80 80 80 79 79 80 80 80 80 81 80 74 70 71 71 71 70 69 69 69 68 68 67 67 66 66 66
80 80 79 79 80 80 79 79 78 78 79 79 78 77 78 77 79 80 67 69 70 70 70 69 69 68 68 67 66 66 65 65 65
79 79 78 79 79 80 79 79 78 77 78 77 77 76 76 76 76 78 73 67 69 69 69 69 68 68 68 67 66 65 65 65 64
78 79 78 78 79 79 78 78 77 77 76 76 76 76 76 75 74 75 76 70 65 68 68 67 67 67 67 67 66 65 65 64 64
78 78 77 79 78 78 77 76 74 74 74 74 73 74 73 74 74 73 73 73 72 66 66 66 65 65 66 66 65 65 64 63 63
78 78 78 79 77 76 75 75 74 72 72 72 72 71 71 71 72 72 70 70 70 71 63 63 62 63 63 64 64 64 63 63 63
77 78 78 78 76 75 74 72 73 73 72 71 69 69 70 70 70 70 70 69 67 68 67 64 63 58 59 60 61 62 62 62 62
77 77 77 77 75 74 73 72 69 68 71 68 66 66 67 67 68 69 69 67 66 67 66 66 66 62 56 56 58 58 59 60 61
76 76 76 77 74 74 73 71 67 69 68 66 67 62 64 65 66 67 66 66 66 65 64 65 64 63 64 59 55 56 56 58 59
75 75 76 76 75 73 72 70 67 64 65 69 68 61 61 62 63 62 63 64 61 64 63 62 61 61 62 56 55 53 54 56 58
74 74 73 74 74 73 71 70 69 68 62 64 64 63 66 62 57 58 59 60 58 59 57 61 59 59 59 52 51 51 52 54 56
71 71 72 71 71 71 70 68 68 69 67 63 62 62 61 60 60 59 51 52 54 57 57 57 59 57 57 56 52 50 51 53 54

GFSFLT1_sfc_temp_078.txt.gz
Temp
78 77 76 76 76 76 76 76 75 75 75 75 75 74 74 72 72 70 72 71 77 77 76 76 76 76 76 75 75 75 75 75 75
77 76 75 75 76 76 76 76 75 75 74 74 74 74 73 74 74 74 70 72 77 76 76 75 75 75 74 74 74 74 74 74 74
76 76 75 75 76 76 76 75 75 74 74 74 73 73 71 75 73 71 69 74 76 76 75 75 75 74 73 73 73 73 73 73 73
76 75 75 75 75 75 75 75 74 74 73 73 72 72 71 74 72 74 69 74 76 75 74 74 73 73 72 72 72 72 72 72 72
74 73 73 74 74 74 74 74 74 73 72 72 71 71 70 69 71 70 69 75 75 74 73 73 72 72 71 71 71 71 71 71 71
70 71 71 72 73 73 73 73 73 71 70 70 70 69 67 69 69 68 73 74 74 73 72 72 72 71 71 70 70 70 70 70 70
73 68 70 72 72 72 73 73 71 69 66 64 67 65 67 69 67 67 72 74 73 72 71 71 71 70 70 70 69 69 69 69 68
68 64 66 65 66 67 68 67 66 66 67 66 66 67 68 68 67 69 72 73 73 72 71 71 70 70 69 69 69 68 68 68 67
67 67 65 65 65 65 65 65 66 68 70 68 68 69 68 67 65 66 69 72 72 72 71 70 70 69 69 68 68 67 67 67 66
68 67 68 67 68 67 66 67 69 69 69 69 70 68 67 68 65 62 67 70 71 71 71 70 70 69 68 68 67 67 66 66 66
68 68 68 68 68 68 68 68 68 68 68 68 68 67 66 67 64 63 63 68 70 71 71 70 70 70 69 68 67 66 66 65 65
69 68 67 68 69 70 69 69 68 67 68 66 66 66 65 65 66 63 61 63 67 69 71 70 70 69 69 68 67 66 65 65 64
68 67 67 68 68 68 66 66 65 64 63 62 63 63 64 64 64 63 62 60 62 65 69 69 69 69 68 68 67 66 65 64 64
69 67 67 68 66 66 66 65 64 61 60 62 61 61 61 62 66 63 61 59 58 58 65 65 66 67 67 67 67 66 64 63 63
69 68 68 68 65 64 64 63 63 62 61 67 63 59 59 60 59 60 63 60 59 57 56 55 57 63 65 66 65 64 63 62 62
70 68 68 67 65 64 65 63 62 60 61 59 56 56 59 58 58 58 58 59 59 56 54 53 52 55 62 63 62 62 62 62 61
72 70 69 67 65 65 64 63 60 59 60 56 54 50 53 56 58 57 59 57 56 57 56 54 52 50 50 51 60 60 61 60 60
70 69 69 67 67 65 65 64 61 59 58 59 56 50 50 50 53 55 56 56 53 54 55 55 55 52 49 53 55 57 57 58 59
67 67 67 66 65 64 65 66 64 60 59 56 63 56 55 50 47 51 53 55 55 53 52 53 53 53 49 52 52 55 54 56 58
68 67 68 65 66 65 63 62 63 64 59 59 53 56 52 51 49 44 47 51 52 52 52 53 52 52 49 46 51 54 54 55 56

GFSFLT1_sfc_temp_081.txt.gz
Temp
78 77 76 75 76 76 76 75 75 75 75 75 75 75 74 72 69 71 71 73 77 77 76 76 76 76 75 75 75 75 75 75 75
77 76 75 75 76 76 76 75 75 74 74 75 75 74 73 74 69 70 68 71 77 76 75 75 74 74 74 74 74 74 74 74 74
76 75 75 76 76 76 75 75 75 74 74 74 74 73 71 73 68 67 68 74 76 76 75 74 74 73 73 73 73 73 73 73 73
76 75 75 75 75 75 75 75 74 74 73 73 73 72 70 68 69 71 68 74 76 75 74 74 73 72 72 72 72 72 72 72 72
74 73 74 74 74 74 74 74 74 73 72 72 72 70 69 65 67 67 68 74 75 74 73 73 72 72 71 71 71 71 71 71 71
70 70 71 72 73 73 74 74 73 71 70 71 70 69 65 64 66 66 72 74 74 73 72 72 72 71 71 70 70 70 70 70 70
70 68 69 72 72 72 73 73 71 69 64 64 68 64 64 64 65 65 72 74 73 72 71 71 71 70 70 70 70 69 69 69 69
64 65 66 65 66 66 68 67 65 63 62 63 63 63 63 63 64 68 72 73 73 72 71 71 70 70 69 69 69 69 68 68 68
63 63 63 63 63 63 63 63 63 63 64 63 64 64 63 62 62 66 69 72 73 72 71 70 70 69 69 68 68 68 67 67 67
65 63 63 62 62 62 62 62 63 63 64 65 65 65 63 62 62 62 67 70 72 72 71 71 70 69 69 68 67 67 67 66 66
65 63 64 64 64 63 64 63 63 63 65 65 65 64 64 62 61 61 63 68 70 71 71 71 70 70 69 68 67 67 66 66 65
65 63 63 64 66 64 64 64 64 63 65 64 63 63 62 61 60 61 60 63 67 69 71 71 70 70 70 68 67 66 66 65 65
65 64 63 65 64 64 63 63 62 62 61 60 60 61 61 61 59 59 59 59 61 66 69 70 70 70 70 69 68 66 65 65 64
66 65 64 65 64 63 64 62 61 59 58 60 59 58 59 60 63 58 58 58 58 57 65 66 67 68 69 69 68 67 65 64 64
66 65 65 64 63 62 61 61 60 60 59 64 61 57 57 58 57 58 60 58 57 56 57 57 58 65 67 68 68 67 66 64 63
67 64 64 63 63 63 62 61 60 58 58 56 54 54 55 56 57 57 57 57 58 55 54 52 53 57 65 66 66 66 65 64 63
68 66 65 64 62 62 61 60 57 58 57 54 52 50 53 54 56 55 57 55 55 55 54 52 52 51 52 54 63 63 64 64 63
70 66 68 65 64 64 61 61 60 57 55 57 55 48 48 49 51 54 54 54 52 52 55 53 53 51 49 55 58 60 62 62 62
65 64 65 67 63 62 62 63 61 58 59 54 60 55 53 50 48 50 51 52 52 52 51 52 52 52 51 53 54 58 58 59 60
65 64 63 62 63 63 63 62 62 63 60 59 53 54 51 50 47 45 46 49 50 53 53 52 53 52 50 50 53 56 56 57 58

GFSFLT1_sfc_temp_084.txt.gz
Temp
78 77 76 76 75 76 75 75 75 75 75 75 75 75 73 71 71 68 73 72 77 77 76 76 76 76 75 75 75 75 75 75 75
77 76 75 75 76 76 75 75 75 75 75 75 75 74 72 67 66 67 68 71 77 76 75 75 74 74 74 74 74 74 74 75 74
76 75 75 75 76 75 75 75 74 74 74 74 74 72 72 69 66 66 67 74 76 75 75 74 74 73 73 73 73 73 73 73 73
76 75 75 76 75 75 75 74 74 74 74 74 72 71 69 66 67 69 66 74 75 75 74 74 73 73 72 72 72 72 72 72 72
74 73 74 75 74 74 74 74 74 73 73 73 71 69 68 64 66 66 67 74 75 74 73 73 72 72 71 71 71 71 71 71 71
69 69 71 73 73 73 74 73 73 71 70 71 71 67 64 63 64 65 72 74 74 73 72 72 71 71 71 70 70 70 70 70 70
69 67 69 72 72 72 73 73 71 69 63 63 67 63 62 63 63 64 72 74 73 72 72 71 71 70 70 70 70 70 69 69 69
65 65 66 65 66 66 68 67 64 62 61 62 61 62 61 61 62 67 72 73 73 72 71 71 70 70 70 69 69 69 69 68 68
62 64 63 63 63 63 63 63 62 62 62 61 61 61 61 61 61 65 69 72 73 72 71 71 70 70 69 69 69 68 68 67 67
62 62 62 62 62 62 61 61 61 61 61 62 62 62 60 61 61 61 66 70 72 72 72 71 70 70 69 69 68 67 67 67 66
64 62 62 61 61 61 61 60 61 60 61 61 62 62 60 60 61 60 62 68 70 72 72 71 71 70 69 68 68 67 67 66 66
64 63 61 62 62 61 61 60 61 60 61 61 61 61 59 59 60 60 59 63 67 70 72 72 71 70 70 69 68 67 66 66 65
63 63 62 62 62 62 60 60 59 59 59 59 59 59 59 58 59 59 59 59 61 66 70 71 71 71 70 70 69 68 66 65 65
65 63 62 62 62 61 62 59 59 57 57 59 58 57 57 58 60 58 57 57 58 58 64 67 68 69 70 70 70 68 66 65 65
66 63 62 62 60 60 59 59 58 58 58 62 60 56 56 56 55 56 59 56 57 57 57 58 59 65 68 69 70 69 67 65 64
66 64 63 61 61 62 60 59 59 56 56 55 54 53 54 54 54 55 54 55 56 55 55 55 55 58 66 67 69 69 68 66 65
67 65 64 63 60 60 59 59 56 57 56 54 51 51 53 54 54 53 55 54 55 55 54 53 53 53 53 55 65 67 67 66 65
66 64 65 63 63 61 59 59 58 56 55 55 55 47 48 48 51 52 52 53 51 51 53 52 52 52 52 56 59 62 63 64 64
64 64 62 62 63 62 61 60 60 57 57 54 57 53 52 50 49 49 49 50 51 49 49 52 53 53 51 54 54 56 56 58 60
64 63 62 61 61 61 60 62 61 63 64 59 55 56 53 52 51 52 47 47 47 48 52 52 52 52 49 49 53 56 55 54 53

GFSFLT1_sfc_temp_087.txt.gz
Temp
78 77 76 75 75 75 76 75 75 75 75 75 75 74 73 71 67 68 72 70 77 77 76 76 76 75 75 75 75 76 75 75 75
77 76 75 75 75 75 75 75 75 75 75 75 75 73 70 67 65 66 68 71 77 77 77 75 75 74 74 75 74 74 75 75 75
76 75 75 75 75 75 75 75 75 75 75 74 74 72 70 67 65 66 66 74 76 76 75 74 74 74 74 73 73 73 73 73 73
76 75 75 75 75 75 75 75 74 74 74 73 72 71 69 65 65 68 65 74 75 75 74 73 73 72 72 72 72 72 72 72 72
74 73 74 75 74 74 74 74 74 74 73 72 71 69 68 64 64 65 66 74 75 74 73 72 72 72 71 71 71 71 72 72 72
69 69 71 73 73 73 73 73 73 71 71 71 69 67 63 62 63 64 72 74 74 73 72 72 71 71 71 71 71 71 71 71 71
68 67 70 72 72 72 73 73 71 68 63 62 66 62 62 62 62 63 72 74 73 73 72 71 71 70 70 70 70 70 70 70 70
65 65 66 66 66 65 67 66 64 62 61 61 60 60 60 61 61 65 71 73 73 72 71 71 70 70 70 70 69 69 69 69 68
63 64 64 64 63 63 63 62 61 61 61 60 60 60 59 60 61 62 69 72 73 72 71 71 70 70 69 69 69 68 68 68 67
61 62 62 62 62 61 61 61 61 60 60 60 60 60 60 60 61 61 65 70 72 72 72 71 70 70 69 69 68 68 67 67 67
61 61 61 61 61 61 61 60 60 59 59 60 60 60 60 59 60 60 61 68 70 72 72 72 71 70 70 69 68 67 67 67 66
62 61 60 61 61 61 60 59 59 58 59 59 59 59 58 58 59 60 59 62 66 70 72 72 72 71 70 70 68 67 67 66 66
61 61 61 60 60 60 59 58 58 58 58 58 58 58 57 57 58 59 58 59 60 65 69 71 72 71 71 70 69 68 67 66 65
63 62 61 60 59 59 59 58 58 57 57 58 57 57 56 57 59 58 57 57 58 57 63 66 68 69 71 71 71 69 67 66 65
63 61 61 60 58 58 57 58 57 57 57 60 59 55 55 55 54 56 58 56 57 56 57 57 59 65 69 70 71 70 68 66 65
64 63 61 60 60 61 59 58 57 55 55 54 54 53 54 54 54 54 54 55 56 55 55 55 55 57 66 68 69 70 70 68 66
65 64 63 61 59 59 58 58 56 56 55 53 51 51 54 53 54 53 54 52 54 54 54 54 53 53 54 58 66 67 69 68 66
64 63 65 63 62 61 59 58 57 56 54 55 56 48 48 48 51 50 51 52 50 51 52 52 53 54 54 57 59 61 61 60 60
64 63 62 61 60 60 59 60 59 57 56 53 57 55 56 54 52 52 49 51 53 53 51 52 53 54 52 54 54 55 55 54 55
63 63 61 60 60 60 59 58 57 61 63 58 55 56 53 53 53 56 53 50 50 51 52 52 52 53 51 50 53 56 55 56 56

GFSFLT1_sfc_temp_090.txt.gz
Temp
78 77 76 75 75 76 76 75 75 75 75 75 75 74 73 70 66 67 71 70 77 77 76 75 75 76 76 76 76 76 75 75 75
77 76 75 75 75 75 75 75 75 75 75 75 74 73 70 66 65 65 67 72 78 78 77 77 76 75 75 75 74 75 74 75 75
76 75 75 75 75 75 75 75 75 75 75 74 73 71 70 67 65 65 66 74 76 75 75 74 74 74 74 74 74 74 73 73 73
75 75 75 75 75 75 75 75 75 75 74 73 72 70 68 64 64 67 65 74 75 74 74 73 73 73 72 73 73 73 73 72 72
74 73 74 74 74 74 74 74 74 74 73 72 71 69 67 63 63 64 66 74 74 74 73 72 72 72 71 71 71 72 72 72 72
69 69 71 73 73 73 73 73 73 71 70 70 69 67 62 62 62 63 72 74 74 73 72 72 71 71 71 71 71 71 71 71 71
68 67 70 72 71 72 73 72 71 65 62 62 65 61 61 61 62 62 72 74 73 73 72 71 71 71 70 70 70 70 70 70 70
66 65 66 66 66 65 66 65 63 61 60 60 60 59 60 60 61 65 71 73 73 72 71 71 70 70 70 70 70 69 69 69 69
63 64 64 64 63 63 62 62 61 61 60 59 59 59 59 60 60 62 68 72 73 72 71 71 70 70 70 69 69 68 68 68 68
62 62 62 62 62 61 61 61 60 59 59 59 59 59 59 59 60 60 64 69 72 73 72 71 70 70 69 69 68 68 67 67 67
61 61 61 61 61 61 60 60 60 59 58 59 59 59 59 58 59 60 60 67 70 72 73 72 71 71 70 69 68 68 67 67 66
61 61 60 61 61 61 59 59 59 58 58 58 58 58 57 58 58 59 59 61 66 69 72 73 72 71 71 70 69 68 67 66 66
61 60 60 60 60 60 59 58 57 57 57 56 57 57 57 57 57 58 58 58 60 64 69 71 72 72 71 71 70 69 67 66 66
61 61 60 60 59 59 59 57 57 56 56 57 57 57 56 56 58 57 57 57 58 57 62 66 67 69 71 71 72 70 68 67 66
63 60 60 59 58 57 57 57 56 56 56 59 58 55 55 54 54 55 57 57 57 56 56 56 59 65 69 71 71 72 70 67 66
63 61 60 59 59 59 58 56 56 54 55 54 54 54 55 54 53 54 54 55 56 55 55 54 54 56 65 68 70 71 71 69 67
63 63 61 59 58 57 57 56 55 55 54 53 50 52 54 53 54 53 53 52 53 54 54 53 53 53 54 59 66 68 70 70 68
64 62 62 60 60 59 57 57 57 55 53 54 56 49 49 49 52 52 51 51 50 52 54 55 55 55 55 58 60 63 66 65 62
62 62 61 60 59 58 57 58 58 57 55 53 56 56 57 55 53 53 54 53 53 54 51 51 52 54 52 55 56 60 61 62 60
63 62 62 61 61 60 59 57 57 59 62 58 55 56 53 54 54 53 55 51 48 48 48 52 52 53 52 51 54 58 59 60 60

GFSFLT1_sfc_temp_093.txt.gz
Temp
78 77 76 75 75 76 76 76 75 76 76 76 76 74 72 72 78 79 79 77 78 78 77 77 76 76 76 76 75 75 76 76 75
77 75 75 75 75 76 76 75 75 75 75 75 74 72 70 78 78 78 78 79 78 77 76 76 75 75 75 75 75 74 74 74 75
76 75 75 75 75 75 75 75 75 75 75 74 73 71 70 75 77 77 78 75 76 75 75 74 74 74 74 74 74 74 74 74 74
76 75 75 75 75 75 75 75 75 74 74 73 72 70 68 76 76 76 78 74 75 74 74 73 73 73 73 73 73 73 73 73 73
74 73 74 74 74 74 74 74 74 73 73 72 71 69 68 76 75 76 77 74 75 74 73 73 73 72 72 72 72 72 72 72 72
76 71 71 73 73 73 74 73 72 71 70 70 68 68 75 76 76 76 73 74 74 73 72 72 72 72 71 71 71 71 71 71 71
75 71 70 72 72 72 73 72 69 70 75 74 69 76 75 76 75 76 72 74 74 73 72 71 71 71 71 71 71 71 71 70 70
75 73 74 74 69 75 74 73 73 72 74 73 75 75 75 76 76 73 71 73 74 73 72 71 71 71 70 70 70 70 70 69 69
72 73 73 73 74 73 72 72 71 71 72 73 73 74 74 75 75 73 67 72 73 73 72 71 71 70 70 70 69 69 69 68 68
70 72 72 72 72 72 71 72 71 71 71 72 72 72 73 72 74 75 64 69 72 73 72 71 71 70 70 69 69 68 68 68 67
71 70 70 71 71 72 72 72 71 71 71 71 71 72 72 72 71 73 73 66 69 72 73 72 72 71 70 69 69 68 68 67 67
70 71 70 70 71 70 70 70 70 70 69 70 71 71 72 71 71 71 72 72 66 69 73 73 72 72 71 70 69 68 67 67 66
70 69 70 71 70 70 69 69 69 68 68 69 70 71 70 71 71 70 71 71 72 68 69 71 72 72 72 72 71 69 68 67 66
70 70 71 70 69 68 68 67 68 67 67 67 69 70 69 70 69 70 70 70 69 71 66 65 67 70 72 72 72 71 69 67 66
69 69 69 69 67 66 66 66 66 67 68 66 67 69 69 68 68 70 69 70 68 69 68 69 70 64 69 71 72 72 70 68 67
69 69 68 67 67 68 67 66 65 64 65 66 68 68 68 68 68 68 68 67 68 68 68 69 69 69 65 68 70 71 72 69 67
69 69 68 67 66 66 66 65 64 65 64 66 63 63 67 67 66 66 65 67 67 67 66 68 68 67 67 65 66 68 71 71 68
69 68 69 67 67 66 66 65 64 64 63 65 67 59 60 61 64 64 64 64 63 65 65 64 64 64 63 61 62 63 66 70 71
67 67 67 67 66 66 64 64 64 64 64 61 63 61 61 57 56 62 61 61 61 59 57 59 62 59 58 57 58 60 64 68 66
65 65 66 66 64 64 63 63 64 64 66 63 61 59 57 58 57 55 62 57 58 54 55 55 60 59 58 57 56 60 63 66 65

GFSFLT1_sfc_temp_096.txt.gz
Temp
77 76 76 76 76 77 77 76 76 76 76 76 75 74 73 77 85 84 82 82 78 77 76 75 76 75 75 75 75 75 75 75 75
76 75 75 75 76 76 76 76 75 75 75 75 73 73 73 84 84 83 82 80 76 76 76 75 75 75 75 75 74 74 74 74 74
75 75 75 76 76 76 75 75 75 75 75 74 73 72 73 81 82 82 80 75 76 75 75 74 74 74 74 74 74 74 74 74 73
75 75 75 75 75 75 75 75 75 75 74 73 71 70 71 82 82 83 81 74 75 74 74 73 73 73 73 73 73 73 73 73 73
74 73 74 75 74 74 74 74 74 74 73 72 70 70 71 83 81 82 79 74 75 74 73 73 73 73 72 72 72 72 73 73 72
78 72 71 73 73 74 74 73 72 71 70 70 69 69 83 83 82 82 73 74 74 73 72 72 72 72 72 72 72 72 72 72 71
78 73 70 72 72 72 73 72 71 73 81 78 71 84 83 83 82 80 73 74 74 73 72 71 71 71 71 71 71 71 71 70 70
79 78 79 79 71 80 77 76 81 81 82 82 83 84 84 84 82 75 72 74 74 73 72 71 71 71 71 70 70 70 70 69 69
83 81 81 81 81 81 80 81 81 80 81 82 82 83 83 84 83 76 69 72 74 73 72 71 71 70 70 70 69 69 69 69 68
82 82 79 81 82 81 80 80 80 80 81 81 80 80 81 81 82 83 67 69 72 73 72 71 71 71 70 70 69 68 68 68 68
80 81 80 81 81 81 81 80 79 79 80 80 80 80 80 80 79 82 79 67 70 72 73 72 72 71 71 70 69 68 68 68 67
80 80 79 80 81 80 80 79 79 79 79 78 80 80 81 80 79 80 81 77 66 69 73 73 73 72 71 70 69 68 68 67 67
79 79 79 80 80 79 78 78 77 77 77 78 78 78 78 80 80 79 80 79 79 69 69 71 73 72 72 72 70 69 68 67 67
79 79 79 79 78 77 77 77 77 75 75 75 76 77 78 78 78 78 79 78 77 78 68 66 67 69 72 72 73 71 69 68 67
78 79 78 78 77 76 75 74 74 75 75 74 74 76 77 77 77 78 78 78 76 76 76 75 73 65 68 71 72 72 71 68 67
78 78 78 77 75 76 75 74 73 72 74 72 73 74 76 77 77 78 78 77 76 76 76 76 77 75 66 68 70 72 72 70 68
77 77 77 76 75 75 75 73 71 73 73 71 71 68 73 75 76 77 75 76 77 75 75 76 75 75 73 70 66 68 71 72 69
76 76 76 76 75 74 73 73 71 70 71 72 71 65 66 71 74 73 74 74 74 74 73 72 71 71 70 67 64 63 65 69 70
72 73 74 75 74 74 74 73 73 71 69 69 71 73 71 66 65 69 68 68 68 70 70 67 65 62 63 61 59 60 62 66 70
68 70 70 72 72 72 72 70 70 71 70 69 67 68 69 68 64 60 67 66 66 66 64 64 63 65 63 59 62 59 62 66 68

GFSFLT1_sfc_temp_099.txt.gz
Temp
77 77 76 76 76 76 76 76 76 76 75 75 75 75 75 77 84 82 79 78 77 77 76 76 76 75 75 75 75 75 75 75 75
76 76 75 76 77 76 76 76 76 75 75 75 74 75 75 84 83 80 78 76 76 76 76 75 75 75 75 75 74 74 74 74 74
75 75 75 76 76 76 76 76 75 75 74 74 73 73 73 82 81 79 76 74 75 75 75 74 74 74 74 74 74 74 74 74 74
75 75 75 76 75 75 75 75 75 74 74 73 72 72 73 82 82 81 77 73 75 75 74 74 74 74 74 74 73 73 73 73 73
74 73 74 75 74 74 74 74 74 74 73 72 71 71 73 82 81 79 75 74 74 74 73 73 73 73 73 73 73 73 73 73 73
76 72 72 73 73 74 74 73 73 71 70 71 71 70 83 83 81 77 73 74 74 73 73 72 72 72 72 72 72 72 72 72 72
77 72 70 72 72 72 73 72 71 72 78 76 71 81 83 82 81 76 73 74 74 73 72 72 72 71 71 71 71 71 71 71 70
77 76 76 76 70 77 75 74 78 82 83 81 83 84 83 82 81 73 73 74 74 73 72 71 71 71 71 71 70 70 70 70 69
79 79 80 79 79 80 80 80 82 81 82 83 83 83 82 82 81 72 71 73 74 73 72 71 71 71 70 70 70 69 69 69 69
83 83 83 82 82 82 81 81 81 81 82 82 82 81 81 81 81 79 68 70 73 73 72 71 71 71 70 70 69 69 68 68 68
83 83 80 82 83 83 82 81 80 80 81 81 81 81 80 81 80 81 72 68 70 73 73 72 72 71 71 70 69 68 68 68 67
81 82 81 82 83 83 82 81 81 80 80 80 81 81 81 80 79 79 79 71 67 70 73 73 73 72 72 71 69 69 68 68 67
81 81 80 82 81 81 79 78 77 78 78 78 79 79 79 79 80 79 79 78 78 68 70 71 73 72 72 72 71 69 68 68 67
81 81 81 82 80 79 78 77 77 76 76 76 77 77 76 77 79 79 79 78 77 77 67 67 68 70 72 73 72 71 69 68 68
80 80 80 80 78 77 76 75 76 76 76 75 74 75 75 76 76 77 78 78 77 76 75 70 69 65 69 72 73 73 71 69 68
79 78 79 78 77 76 77 75 74 72 75 72 72 72 75 75 75 76 77 77 76 76 76 75 75 70 67 68 71 72 73 70 69
78 78 78 78 76 75 75 74 71 72 72 68 70 65 71 73 75 76 76 76 76 75 75 75 74 74 72 68 66 68 71 72 70
77 77 77 76 76 74 74 73 70 68 71 71 69 64 63 68 72 73 74 74 73 74 73 72 72 71 69 65 63 63 65 69 71
73 74 73 75 74 73 73 74 72 70 69 70 71 70 70 64 64 69 71 72 71 71 68 67 67 65 63 61 60 60 61 65 68
68 68 70 71 71 71 72 72 72 73 70 69 67 67 67 66 63 61 63 63 65 63 63 64 63 64 63 61 60 59 60 64 67

GFSFLT1_sfc_temp_102.txt.gz
Temp
77 76 76 75 76 76 76 76 76 76 76 76 76 76 75 75 74 72 73 71 77 76 76 76 75 75 75 75 75 75 74 74 75
76 76 76 76 75 76 76 76 76 75 75 75 75 75 74 75 72 69 68 71 76 76 75 75 75 75 75 75 75 74 74 74 74
76 76 77 76 76 76 76 76 75 75 75 75 74 74 73 75 71 68 67 74 75 75 75 74 74 74 74 74 74 74 74 74 74
75 75 76 75 75 75 75 75 75 74 74 74 73 73 73 72 71 73 67 74 75 75 74 74 74 74 74 74 74 74 73 73 73
74 73 75 74 74 74 74 74 74 73 73 73 72 71 71 71 70 68 68 74 75 74 74 74 73 73 73 73 73 73 73 73 73
70 70 71 72 73 73 73 73 73 71 70 71 71 70 70 71 70 67 72 74 74 73 73 73 73 72 72 72 72 72 72 72 72
71 68 70 72 72 72 73 72 71 70 67 65 68 67 71 70 69 67 72 74 74 73 72 72 72 72 71 71 71 71 71 71 71
69 66 66 66 67 68 68 67 68 67 69 69 68 71 71 69 68 69 72 74 74 73 72 72 71 71 71 71 71 70 70 70 70
73 69 67 66 66 66 66 66 68 71 72 71 71 71 71 69 68 66 70 73 73 73 72 72 71 71 71 70 70 69 69 69 69
71 71 72 70 68 69 68 68 70 70 70 71 72 71 70 71 69 64 67 71 73 73 72 72 71 71 71 70 69 69 69 68 68
73 71 71 70 71 71 70 69 69 68 69 69 71 70 70 70 70 65 64 68 71 73 73 72 72 71 71 70 69 69 68 68 68
72 72 70 70 72 72 71 70 69 68 70 67 69 70 69 70 70 69 65 66 67 70 73 73 72 72 71 71 70 69 68 68 68
71 70 69 71 71 70 69 68 67 66 66 66 67 67 68 68 68 69 68 66 68 67 70 72 73 72 72 73 72 70 69 68 68
71 70 70 71 69 68 68 66 66 64 64 66 65 65 65 66 71 67 68 68 67 65 66 67 68 70 72 73 73 71 70 69 68
71 70 70 69 67 66 66 65 65 64 64 69 67 64 64 65 65 67 70 68 68 67 64 63 63 66 69 72 73 73 71 69 69
71 69 69 69 67 67 67 66 64 63 64 62 61 62 64 65 65 66 66 67 68 66 66 63 62 64 67 69 71 72 73 71 69
71 70 70 70 68 68 67 66 63 63 63 59 59 57 60 63 65 65 66 66 66 66 67 65 65 64 61 62 67 69 71 71 70
69 70 70 70 68 66 67 66 64 61 63 64 60 55 54 58 63 65 65 65 63 63 64 64 63 60 59 61 62 64 65 68 71
67 69 69 69 68 67 66 67 65 63 61 62 65 61 60 56 56 61 63 61 62 60 59 58 59 58 58 58 58 60 61 64 68
65 66 66 66 65 65 65 65 65 64 63 62 60 60 60 60 57 54 57 59 58 56 56 56 55 55 55 54 55 58 60 63 66

GFSFLT1_sfc_temp_105.txt.gz
Temp
79 77 76 75 76 76 76 76 76 76 76 77 78 76 74 72 69 67 71 69 77 76 76 75 75 75 75 75 75 75 75 75 75
77 76 75 75 75 76 76 76 76 75 75 76 77 75 72 69 65 65 66 70 76 76 76 75 75 75 75 75 75 74 74 74 74
76 75 75 75 76 76 76 76 75 75 75 76 75 74 72 69 65 65 66 74 75 75 75 75 75 75 74 74 74 74 74 74 74
77 76 75 75 75 75 75 75 75 75 75 74 73 72 70 66 67 70 66 74 75 75 74 74 74 74 74 74 73 74 73 73 73
76 74 73 74 74 74 74 74 74 74 73 73 72 70 69 65 66 65 67 74 75 74 74 74 74 73 73 73 73 73 73 73 73
70 73 71 72 73 73 74 73 72 71 71 72 71 69 66 65 65 65 72 74 74 74 73 73 73 73 72 72 72 72 72 72 72
69 69 70 71 71 72 73 72 71 69 66 66 68 66 65 65 65 66 72 74 74 73 72 72 72 72 72 72 71 71 71 71 71
65 65 65 66 66 66 67 67 66 65 65 66 65 67 64 64 65 68 72 74 74 73 72 72 72 71 71 71 71 70 70 70 70
64 63 64 64 64 64 63 63 64 65 66 65 66 67 66 63 64 66 70 73 73 73 72 72 71 71 71 70 70 70 69 69 69
66 64 63 63 63 63 63 63 65 65 67 67 68 69 66 65 64 63 67 70 72 73 72 72 72 71 71 70 69 69 69 68 68
68 67 66 65 65 65 65 64 65 66 66 67 68 68 67 66 64 63 64 68 71 73 73 73 72 72 71 70 69 69 68 68 68
69 68 67 68 67 67 66 66 65 65 66 65 66 66 66 67 65 64 62 65 67 70 73 73 72 72 71 71 70 69 69 68 68
69 72 72 68 68 67 66 65 64 63 63 63 64 64 65 65 65 64 63 63 65 67 70 72 72 72 72 72 71 70 69 68 68
69 67 67 68 66 65 66 64 64 62 61 63 62 62 62 64 67 65 64 63 64 63 66 67 69 70 72 73 73 72 70 69 68
68 67 67 67 65 64 64 63 62 62 62 66 65 61 62 62 62 64 67 65 64 63 63 63 63 66 70 72 73 73 72 69 69
68 67 66 66 65 64 65 63 62 61 61 60 59 60 61 61 63 64 63 65 65 63 63 61 61 62 66 69 71 73 73 71 70
70 68 67 67 66 66 65 64 61 62 62 60 58 57 60 60 62 62 63 63 63 64 64 62 61 60 60 61 67 69 71 72 71
68 68 67 66 66 65 64 64 63 60 61 62 59 53 54 56 59 60 61 62 61 61 62 61 59 58 59 61 61 63 65 68 70
68 67 67 67 66 65 65 66 64 61 60 60 63 60 59 55 55 59 58 59 59 57 57 56 56 56 55 58 58 60 61 64 67
65 66 66 65 64 65 65 64 63 63 61 61 59 58 57 58 56 53 56 56 54 54 55 56 54 53 55 54 55 58 60 63 65

GFSFLT1_sfc_temp_108.txt.gz
Temp
77 76 76 75 76 76 76 76 76 76 76 77 76 74 72 70 65 65 70 68 76 76 76 75 75 75 75 75 75 75 75 75 75
76 75 75 75 75 76 76 76 76 76 76 76 74 73 70 65 63 64 65 69 76 76 76 75 75 75 75 75 75 74 74 74 74
76 75 75 75 76 76 76 75 75 76 76 75 73 71 70 66 63 64 65 73 76 76 75 75 75 75 75 74 74 74 74 74 74
75 75 75 76 76 75 75 75 75 75 75 74 72 70 68 63 64 68 65 74 75 75 75 74 74 74 74 74 74 74 73 73 73
74 73 74 74 74 74 74 74 75 74 73 72 71 69 67 62 64 64 67 74 75 74 74 74 74 73 73 73 73 73 73 73 73
73 70 70 72 73 73 74 74 73 72 71 71 69 68 63 62 63 64 72 74 74 74 73 73 73 73 72 72 72 72 72 72 72
72 68 69 71 71 72 73 72 71 68 65 65 67 64 63 63 63 64 72 74 74 73 72 72 72 72 72 72 71 71 71 71 71
64 65 65 65 65 66 68 67 64 64 64 64 64 63 61 61 63 67 72 73 73 73 72 72 72 72 71 71 71 71 70 70 70
63 64 63 64 63 63 62 62 63 64 64 63 63 64 62 61 63 65 70 72 73 73 72 72 71 71 71 71 70 70 69 69 69
63 63 63 63 63 62 61 61 62 63 63 64 65 64 62 62 63 62 67 70 72 73 73 72 72 71 71 70 70 69 69 69 68
64 62 62 61 62 62 62 62 62 63 63 64 65 64 63 63 62 62 63 68 71 72 73 72 72 72 71 70 69 69 69 68 68
65 64 62 62 62 63 62 62 62 62 64 63 64 64 63 63 62 62 62 64 67 70 73 73 72 72 71 71 70 69 69 68 68
66 66 65 65 63 63 63 62 61 61 61 61 62 62 62 62 62 62 61 62 64 66 70 72 72 72 72 72 71 70 69 68 68
68 68 67 66 65 63 64 61 62 60 60 61 61 60 60 62 64 61 61 61 62 62 65 67 69 70 72 73 73 72 70 69 68
68 66 66 65 64 62 62 62 60 61 61 64 63 60 60 60 60 61 64 62 62 62 62 62 63 66 70 72 73 73 72 70 69
68 66 65 64 64 63 63 62 61 59 59 59 59 60 61 61 61 61 61 62 63 61 61 60 61 62 66 69 71 72 73 72 70
68 67 66 65 64 63 63 62 60 61 60 58 56 55 59 58 60 59 61 61 62 61 62 61 60 60 59 60 65 68 71 72 72
67 66 65 64 64 64 63 63 62 60 59 61 59 53 52 55 58 58 59 60 59 59 60 60 60 61 58 61 60 63 65 68 70
67 67 66 65 64 64 64 65 63 62 59 59 61 59 58 55 56 57 56 57 58 56 57 59 57 58 57 58 58 60 61 64 67
65 65 65 64 65 64 64 63 63 63 61 61 59 58 57 57 56 54 55 54 53 54 54 53 54 56 56 52 55 58 60 63 65

GFSFLT1_sfc_temp_111.txt.gz
Temp
78 77 76 76 76 76 76 76 76 76 76 76 75 73 71 68 64 64 69 68 76 76 76 75 75 75 75 75 75 75 75 75 75
76 75 75 75 75 76 76 76 76 76 75 75 74 72 69 63 62 63 65 69 76 76 76 75 75 75 75 75 75 75 74 74 74
75 75 75 75 76 76 76 76 76 75 75 74 72 71 69 65 62 63 65 74 76 76 75 75 75 75 75 74 74 74 74 74 74
75 75 75 75 75 75 75 75 75 75 74 73 71 69 68 62 63 66 65 74 76 75 75 75 75 74 74 74 74 74 74 73 74
74 73 74 75 74 74 74 75 74 74 73 72 70 68 67 61 63 63 66 74 75 74 74 74 74 74 73 73 73 73 73 73 73
69 69 71 73 73 73 74 74 73 71 70 70 69 66 61 61 62 63 72 74 74 74 73 73 73 73 72 72 72 72 72 72 72
69 67 69 72 72 72 73 73 71 67 63 64 66 62 61 61 62 63 72 74 74 73 73 72 72 72 72 72 71 71 71 71 71
68 65 65 66 65 66 67 65 63 62 62 62 61 61 60 60 62 66 71 74 74 73 72 72 72 72 71 71 71 71 70 70 70
63 64 63 63 63 63 63 62 62 63 62 62 61 61 61 60 61 64 69 72 73 73 72 72 72 71 71 71 70 70 70 69 69
62 62 62 62 61 61 61 61 62 62 62 62 63 62 61 61 61 62 66 70 72 73 72 72 72 71 71 70 70 69 69 69 68
62 61 61 61 61 61 60 61 61 61 61 62 62 62 61 61 61 61 62 68 70 72 73 72 72 72 71 70 69 69 69 68 68
63 62 61 61 61 61 61 61 60 60 62 61 61 61 61 61 61 61 61 63 66 70 73 73 72 72 72 71 70 69 69 68 68
61 61 61 61 60 61 60 60 59 59 59 59 60 60 60 60 60 60 60 61 63 66 70 72 72 72 72 72 71 70 69 69 68
64 63 63 62 61 61 61 60 60 58 58 60 59 59 59 60 62 59 60 60 61 61 64 67 68 70 72 73 72 72 70 69 69
65 65 64 64 62 60 60 60 59 59 60 63 61 58 58 58 58 59 61 60 61 61 61 62 63 66 70 72 73 73 72 70 69
67 66 65 64 64 63 62 60 59 58 58 58 58 59 60 60 59 59 59 60 61 60 60 60 60 62 66 69 71 72 73 72 70
68 66 66 66 64 62 62 61 59 60 59 57 56 55 57 57 59 58 60 59 59 60 60 60 60 60 60 63 66 67 70 71 72
67 67 67 66 66 64 62 62 61 59 58 60 59 52 52 54 58 58 57 59 58 59 60 59 60 60 58 60 61 63 65 68 70
66 66 65 65 63 63 63 64 62 62 60 59 61 59 58 54 55 57 55 55 57 57 56 57 56 56 56 57 58 60 61 64 67
65 65 64 64 63 63 64 63 62 62 61 60 58 58 57 58 56 53 56 55 54 55 54 53 56 56 56 55 56 58 60 63 66